Simultaneous Nadir Overpasses (SNOs) Predictions

Prediction of SNOs between AQUA and METOP-C Satellite Orbit:

Table of predicted SNOs for the next 14.0 days since TLE Epoch: 2/14/2020
Index Date (AQUA) Time (AQUA) Lat,Lon (AQUA) SZA (AQUA ) Date (METOP-C) Time (METOP-C) Lat,Lon (METOP-C) SZA (METOP-C ) Distance(km) Time Diff (sec)
1 02/15/2020 08:30:40 73.72, 46.77 86.64 02/15/2020 08:30:12 73.71, 46.73 86.64 1.32 28
2 02/15/2020 09:20:08 -73.82,-145.81 93.27 02/15/2020 09:20:53 -73.79,-145.76 93.31 3.23 45
3 02/18/2020 04:04:57 73.71, 113.22 85.65 02/18/2020 04:04:28 73.71, 113.17 85.66 1.70 29
4 02/18/2020 04:54:25 -73.80, -79.34 94.27 02/18/2020 04:55:09 -73.79, -79.33 94.29 1.64 44
5 02/20/2020 23:39:13 73.71, 179.66 84.64 02/20/2020 23:38:43 73.71, 179.60 84.66 1.84 30
6 02/21/2020 00:28:41 -73.80, -12.89 95.28 02/21/2020 00:29:24 -73.79, -12.89 95.29 1.01 43
7 02/23/2020 19:13:30 73.71,-113.91 83.62 02/23/2020 19:12:59 73.71,-113.96 83.63 1.49 31
8 02/23/2020 20:02:58 -73.79, 53.54 96.31 02/23/2020 20:03:40 -73.78, 53.54 96.32 1.22 42
9 02/26/2020 14:47:47 73.72, -47.49 82.58 02/26/2020 14:47:15 73.71, -47.52 82.58 1.30 32
10 02/26/2020 15:37:15 -73.80, 119.97 97.35 02/26/2020 15:37:56 -73.78, 119.97 97.37 2.22 41




NCC Satellite Simultaneous Nadir Overpasses (SNOs) Prediction Service
